NOAA 16 DEB

Satellite information

Favourite Embed

Satellite Type and Status

DEBRISIN ORBIT

Key statistics

Satellite NOAA 16 DEB at a glance.

Uptime

9115

Days in orbit

Revolutions

≈ 14.1

Per day

Orbit

SSO

Sun Synchronous Orbit

Inclination

98.8

Latest

Satellite identification and parameters

Extended collection of information and parameters for NOAA 16 DEB.

Object identification

Identified? True

Debris? True

Object name: NOAA 16 DEB

International designator: 2000-055FP

Object number (NORAD): 41263

Object ID (CCSDS): 41263

Country: UNITED STATES OF AMERICA (US)

Current information (Y/N): Y

RCS size: SMALL

Orbital parameters

Period: 101.876 minutes

Inclination: 98.8497 deg

SMA: 7225.598 km

Apoapsis: 898.012 km

Periapsis: 796.914 km

RAAN: 262.426 deg

Eccentricy: 0.00699586

Argument of periapsis: 162.3182 deg

Mean anomaly: 198.0448 deg

Mean motion: 14.13487853 rev/day

Mean motion (dot): 0.00008287 rev/day2

B* drag term: 0.0043206748 1/REarth

Two-line elements (TLE)

Creation date: Sept. 1, 2025, 10:16 a.m.

Reference frame: TEME

Reference center: EARTH

Epoch: Aug. 31, 2025, 11:49 p.m. UTC

TLE line 0: 0 NOAA 16 DEB

TLE line 1: 1 41263U 00055FP 25243.99283442 .00008287 00000-0 43207-2 0 9996

TLE line 2: 2 41263 98.8497 262.4260 0069959 162.3182 198.0448 14.13487853494720

Live tracking on map

Real-time ground track for satellite NOAA 16 DEB.

In-orbit conjunctions

A list of the most updated potential collisions computed for object NOAA 16 DEB.

Target Orbit TCA Probability of collision Miss distance Type
CZ-6A DEB LEO 2025-02-04 17:37:34 0.0001633786 668.0 (m) DEBRIS
COSMOS 2082 LEO 2024-08-23 05:47:07 0.0001662313 663.0 (m) PAYLOAD

Associated space launch

The NOAA K, L and M POES satellites begin the fifth generation of improved environmental monitoring in support of NOAA missions. The instrument payload has significant improvements and additions/deletions. The instrument changes have effected the spacecraft subsystems and data formats.

NOAA 16 DEB was lifted into orbit during the mission ‘Titan II SLV | NOAA 16’, on board a Titan II SLV space rocket.

The launch took place on Sept. 21, 2000, 10:22 a.m. from Space Launch Complex 4W.

For more information about the launch, click the button.

Launch to space Titan II SLV | NOAA 16
Titan II SLV | NOAA 16

Agency: N/A

Status: Launch Successful

Launch date: Sept. 21, 2000, 10:22 a.m. UTC

Rocket: Titan II SLV

Launch pad: Space Launch Complex 4W

Location: Vandenberg SFB, CA, USA

...

Latest news about this satellite

There are no fresh news available about this satellite. Check back as we update our databases every day.


Newsletter sign-up

Weekly statistics, charts and insights to help you stay on top of the space industry.